Starlink 31883

operational
NORAD ID: 60020 Int'l Des: 2024-111 Owner: SPXS Country: US Constellation: starlink
LEOCIRCULAR

关于 Starlink 31883

正在加载描述...

实时位置

正在加载3D地球...

即将过境

高度历史

Altitude vs Time

uPlot chart will show altitude changes over time

两行轨道根数

1 60020U 24111E 25306.28797287 -.00001359 00000-0 -33772-4 0 9999
2 60020 53.1609 307.6826 0001279 82.0180 278.0966 15.30185467 79479
Epoch: Nov 2, 2025 • Age: 21 hours

当前状态

高度 477.4 km
速度 7.63 km/s
星下点 35.62°N, 9.36°W
发射日期 Jun 8, 2024
运行时间 1.4 years
类型 internet

技术详情

分类 Payload
质量 730.00 kg
干质量 700.00 kg
总质量 730.00 kg
长度 0.30 m
直径 4.10 m
跨度 29.00 m
形状 Box + pan
制造商 SPXS
平台类型 Starlink V2M
阶段状态 In Orbit
所有者/国家 SPXS/US

大型星座

Loading constellations...